Simultaneous Nadir Overpasses (SNOs) Predictions

Prediction of SNOs between METOP-C and LANDSAT-8 Satellite Orbit:

Table of predicted SNOs for the next 14.0 days since TLE Epoch: 4/1/2023
Index Date (METOP-C) Time (METOP-C) Lat,Lon (METOP-C) SZA (METOP-C ) Date (LANDSAT-8) Time (LANDSAT-8) Lat,Lon (LANDSAT-8) SZA (LANDSAT-8 ) Distance(km) Time Diff (sec)
1 04/02/2023 10:30:03 -81.11,-118.49 101.92 04/02/2023 10:30:25 -81.12,-118.33 101.89 2.92 22
2 04/02/2023 11:20:41 81.14, 49.78 78.19 04/02/2023 11:19:50 81.15, 49.76 78.17 0.61 51
3 04/05/2023 06:04:27 -81.11, -52.05 102.97 04/05/2023 06:04:37 -81.11, -51.94 102.95 1.98 10
4 04/05/2023 06:55:05 81.14, 116.25 77.15 04/05/2023 06:54:02 81.14, 116.12 77.11 2.25 63
5 04/08/2023 00:48:11 81.09,-153.43 75.96 04/08/2023 00:49:22 81.09,-153.49 75.98 1.11 71
6 04/08/2023 01:38:50 -81.12, 14.63 103.97 04/08/2023 01:38:48 -81.11, 14.47 103.99 2.87 2
7 04/10/2023 20:22:34 81.09, -87.22 74.91 04/10/2023 20:23:31 81.09, -87.08 74.95 2.48 57
8 04/10/2023 21:13:12 -81.12, 81.17 104.97 04/10/2023 21:12:56 -81.13, 81.26 104.97 1.77 16
9 04/13/2023 15:56:56 81.10, -20.39 73.96 04/13/2023 15:57:39 81.11, -20.28 73.99 2.11 43



Historial Predications of SNOs between METOP-C and LANDSAT-8
